Hourly Weather Rublene

Today, 3 August, Tuesday

Time Temperature Precipitation Wind Pressure Humidity
00:00 +25°C° 0.1 mm 3 mps 739 mmHg 61%
01:00 +24°C° 0.1 mm 3 mps 739 mmHg 65%
02:00 +24°C° 0.1 mm 2 mps 739 mmHg 69%
03:00 +23°C° 0 mm 1 mps 739 mmHg 73%
04:00 +23°C° 0.5 mm 1 mps 739 mmHg 78%
05:00 +22°C° 0.5 mm 1 mps 739 mmHg 82%
06:00 +22°C° 0.5 mm 1 mps 739 mmHg 86%
07:00 +23°C° 0 mm 2 mps 740 mmHg 81%
08:00 +24°C° 0 mm 2 mps 740 mmHg 76%
09:00 +26°C° 0 mm 3 mps 740 mmHg 69%
10:00 +27°C° 0.1 mm 3 mps 740 mmHg 62%
11:00 +28°C° 0.1 mm 3 mps 740 mmHg 55%
12:00 +30°C° 0.1 mm 3 mps 741 mmHg 49%
13:00 +30°C° 0.1 mm 3 mps 740 mmHg 46%
14:00 +30°C° 0.1 mm 3 mps 740 mmHg 44%
15:00 +31°C° 0.1 mm 3 mps 740 mmHg 41%
16:00 +30°C° 0 mm 3 mps 740 mmHg 41%
17:00 +30°C° 0 mm 4 mps 740 mmHg 40%
18:00 +29°C° 0 mm 4 mps 740 mmHg 40%
19:00 +27°C° 0.2 mm 4 mps 740 mmHg 46%
20:00 +25°C° 0.2 mm 3 mps 741 mmHg 52%
21:00 +22°C° 0.2 mm 3 mps 741 mmHg 59%
22:00 +21°C° 0 mm 3 mps 741 mmHg 64%
23:00 +20°C° 0 mm 2 mps 742 mmHg 69%

Tomorrow, 4 August, Wednesday

Time Temperature Precipitation Wind Pressure Humidity
00:00 +19°C° 0 mm 2 mps 742 mmHg 74%
01:00 +18°C° 0 mm 2 mps 742 mmHg 75%
02:00 +18°C° 0 mm 2 mps 742 mmHg 76%
03:00 +17°C° 0 mm 2 mps 742 mmHg 78%
04:00 +17°C° 0 mm 2 mps 743 mmHg 78%
05:00 +17°C° 0 mm 2 mps 743 mmHg 78%
06:00 +17°C° 0 mm 2 mps 743 mmHg 78%
07:00 +19°C° 0 mm 2 mps 744 mmHg 67%
08:00 +23°C° 0 mm 2 mps 744 mmHg 57%
09:00 +25°C° 0 mm 2 mps 744 mmHg 46%
10:00 +26°C° 0 mm 2 mps 744 mmHg 41%
11:00 +27°C° 0 mm 2 mps 744 mmHg 36%
12:00 +29°C° 0 mm 3 mps 744 mmHg 31%
13:00 +29°C° 0 mm 3 mps 744 mmHg 30%
14:00 +30°C° 0 mm 3 mps 744 mmHg 28%
15:00 +30°C° 0 mm 3 mps 744 mmHg 27%
16:00 +30°C° 0 mm 4 mps 744 mmHg 27%
17:00 +29°C° 0 mm 5 mps 744 mmHg 26%
18:00 +29°C° 0 mm 5 mps 744 mmHg 26%
19:00 +27°C° 0 mm 4 mps 744 mmHg 31%
20:00 +23°C° 0 mm 4 mps 744 mmHg 36%
21:00 +21°C° 0 mm 3 mps 744 mmHg 41%
22:00 +20°C° 0 mm 3 mps 744 mmHg 43%
23:00 +19°C° 0 mm 3 mps 745 mmHg 46%

Day after tomorrow, 5 August, Thursday

Time Temperature Precipitation Wind Pressure Humidity
00:00 +19°C° 0 mm 3 mps 745 mmHg 49%
01:00 +18°C° 0 mm 2 mps 745 mmHg 50%
02:00 +18°C° 0 mm 2 mps 745 mmHg 52%
03:00 +17°C° 0 mm 2 mps 745 mmHg 53%
04:00 +17°C° 0 mm 2 mps 745 mmHg 53%
05:00 +18°C° 0 mm 2 mps 745 mmHg 53%
06:00 +18°C° 0 mm 2 mps 745 mmHg 53%
07:00 +20°C° 0 mm 2 mps 745 mmHg 47%
08:00 +24°C° 0 mm 2 mps 745 mmHg 41%
09:00 +26°C° 0 mm 2 mps 745 mmHg 35%
10:00 +28°C° 0 mm 2 mps 745 mmHg 32%
11:00 +29°C° 0 mm 2 mps 744 mmHg 29%
12:00 +30°C° 0 mm 2 mps 744 mmHg 27%
13:00 +31°C° 0 mm 2 mps 744 mmHg 26%
14:00 +31°C° 0 mm 2 mps 744 mmHg 26%
15:00 +32°C° 0 mm 2 mps 743 mmHg 25%
16:00 +31°C° 0 mm 3 mps 743 mmHg 26%
17:00 +31°C° 0 mm 3 mps 743 mmHg 28%
18:00 +30°C° 0 mm 3 mps 742 mmHg 29%
19:00 +29°C° 0 mm 3 mps 742 mmHg 33%
20:00 +27°C° 0 mm 3 mps 742 mmHg 36%
21:00 +25°C° 0 mm 3 mps 742 mmHg 40%
22:00 +24°C° 0 mm 3 mps 742 mmHg 42%
23:00 +24°C° 0 mm 3 mps 742 mmHg 44%

6 August, Friday

Time Temperature Precipitation Wind Pressure Humidity
00:00 +22°C° 0 mm 3 mps 742 mmHg 46%
01:00 +21°C° 0 mm 3 mps 741 mmHg 47%
02:00 +20°C° 0 mm 3 mps 741 mmHg 48%
03:00 +20°C° 0 mm 3 mps 741 mmHg 49%
04:00 +20°C° 0 mm 3 mps 741 mmHg 49%
05:00 +20°C° 0 mm 3 mps 741 mmHg 50%
06:00 +20°C° 0 mm 3 mps 741 mmHg 51%
07:00 +23°C° 0 mm 4 mps 741 mmHg 44%
08:00 +26°C° 0 mm 4 mps 741 mmHg 37%
09:00 +29°C° 0 mm 5 mps 741 mmHg 30%
10:00 +32°C° 0 mm 6 mps 741 mmHg 27%
11:00 +33°C° 0 mm 7 mps 740 mmHg 25%
12:00 +35°C° 0 mm 7 mps 740 mmHg 23%
13:00 +35°C° 0 mm 7 mps 740 mmHg 23%
14:00 +36°C° 0 mm 6 mps 740 mmHg 23%
15:00 +36°C° 0 mm 6 mps 739 mmHg 23%
16:00 +36°C° 0 mm 5 mps 739 mmHg 24%
17:00 +36°C° 0 mm 5 mps 739 mmHg 24%
18:00 +36°C° 0 mm 4 mps 739 mmHg 25%
19:00 +33°C° 0 mm 4 mps 738 mmHg 29%
20:00 +30°C° 0 mm 4 mps 738 mmHg 33%
21:00 +28°C° 0 mm 4 mps 738 mmHg 37%
22:00 +27°C° 0 mm 4 mps 738 mmHg 37%
23:00 +27°C° 0 mm 4 mps 738 mmHg 36%

7 August, Saturday

Time Temperature Precipitation Wind Pressure Humidity
00:00 +26°C° 0 mm 4 mps 738 mmHg 36%
01:00 +25°C° 0 mm 4 mps 738 mmHg 37%
02:00 +25°C° 0 mm 4 mps 737 mmHg 37%
03:00 +25°C° 0 mm 4 mps 737 mmHg 37%
04:00 +23°C° 0.1 mm 4 mps 737 mmHg 41%
05:00 +23°C° 0.1 mm 4 mps 737 mmHg 46%
06:00 +24°C° 0.1 mm 3 mps 738 mmHg 50%
07:00 +25°C° 0.3 mm 4 mps 738 mmHg 44%
08:00 +27°C° 0.3 mm 5 mps 738 mmHg 39%
09:00 +29°C° 0.3 mm 5 mps 738 mmHg 34%
10:00 +32°C° 0.1 mm 6 mps 738 mmHg 30%
11:00 +34°C° 0.1 mm 6 mps 738 mmHg 26%
12:00 +36°C° 0.1 mm 6 mps 738 mmHg 23%
13:00 +36°C° 0.1 mm 6 mps 738 mmHg 23%
14:00 +36°C° 0.1 mm 6 mps 737 mmHg 24%
15:00 +36°C° 0.1 mm 6 mps 737 mmHg 25%
16:00 +36°C° 0 mm 5 mps 737 mmHg 25%
17:00 +36°C° 0 mm 5 mps 737 mmHg 24%
18:00 +36°C° 0 mm 5 mps 737 mmHg 24%
19:00 +34°C° 0 mm 4 mps 737 mmHg 25%
20:00 +33°C° 0 mm 4 mps 737 mmHg 27%
21:00 +32°C° 0 mm 4 mps 737 mmHg 28%
22:00 +30°C° 0 mm 4 mps 738 mmHg 30%
23:00 +30°C° 0 mm 4 mps 738 mmHg 31%

8 August, Sunday

Time Temperature Precipitation Wind Pressure Humidity
00:00 +29°C° 0 mm 4 mps 738 mmHg 32%
01:00 +28°C° 0 mm 3 mps 738 mmHg 35%
02:00 +28°C° 0 mm 3 mps 738 mmHg 38%
03:00 +27°C° 0 mm 3 mps 738 mmHg 40%
04:00 +26°C° 0 mm 2 mps 738 mmHg 43%
05:00 +26°C° 0 mm 2 mps 738 mmHg 46%
06:00 +25°C° 0 mm 1 mps 738 mmHg 49%
07:00 +27°C° 0 mm 2 mps 738 mmHg 43%
08:00 +29°C° 0 mm 2 mps 738 mmHg 37%
09:00 +32°C° 0 mm 2 mps 739 mmHg 31%
10:00 +34°C° 0 mm 2 mps 739 mmHg 29%
11:00 +35°C° 0 mm 1 mps 739 mmHg 27%
12:00 +36°C° 0 mm 1 mps 739 mmHg 25%
13:00 +37°C° 0 mm 2 mps 739 mmHg 24%
14:00 +38°C° 0 mm 2 mps 739 mmHg 24%
15:00 +38°C° 0 mm 2 mps 739 mmHg 23%
16:00 +37°C° 0 mm 3 mps 739 mmHg 25%
17:00 +37°C° 0 mm 3 mps 739 mmHg 26%
18:00 +36°C° 0 mm 4 mps 739 mmHg 28%
19:00 +34°C° 0 mm 4 mps 739 mmHg 35%
20:00 +32°C° 0 mm 5 mps 740 mmHg 43%
21:00 +28°C° 0 mm 5 mps 740 mmHg 50%
22:00 +26°C° 0.3 mm 5 mps 740 mmHg 61%
23:00 +23°C° 0.3 mm 4 mps 740 mmHg 72%
Show more

We Need Your Consent

Meteoprog and our Service Providers may store and access personal data such as cookies, device identifiers or other similar technologies on your device and process such data to personalise content and ads, as well as provide social media features and to analyse the traffic.

  • Store and/or access information on your device

    Cookies, device identifiers or other information can be stored or accessed on your device for the purposes indicated above.

  • Personalised ads and content, ad and content measurement, audience insights, and products development

    Ads and content can be personalised based on a profile. More data can be added to better personalise ads and content. Ad and content performance can be measured. Insights about the audience who saw the ads and content can be derived. Such data can be used to develop or improve user’s experience, systems and software.

By clicking ‘I Agree’ you will allow the use of indicated cookies, device identifiers, web beacons or other similar technologies. Your settings can be changed in the browser on your device.

For certain purposes, legitimate interests may be relied on, rather than consent. You can read more about this in our Privacy and Cookie Policy.